#timestamp,LO_Frequency,Hit,StdDev 
1630443615.3,286046997.6,N
1630443635.2,286046998.0,N
1630443655.0,286046997.0,N
1630443655.9,286046997.0,N
1630443675.8,286046999.5,N
1630443695.6,286046998.9,N
1630443715.5,286046998.1,N
1630443735.4,286046998.7,N
1630443755.2,286047001.2,N
1630443775.0,286047001.2,N
1630443775.9,286047001.2,N
1630443795.8,286047001.2,N
1630443815.6,286047011.9,Y
1630443835.4,286047000.1,P
1630443855.3,286046999.8,N
1630443875.1,286047002.4,P
1630443895.9,286047000.0,N
1630443915.7,286046998.8,N
1630443935.5,286047002.7,N
1630443955.4,286046999.8,N
1630443975.2,286046999.8,N
1630443995.0,286047000.3,N
1630443995.9,286047000.3,N
1630444015.8,286047002.3,N
1630444035.6,286047002.3,N
1630444055.5,286047002.1,N
1630444075.3,286047001.4,N
1630444095.1,286047002.5,N
1630444115.9,286047001.3,N
1630444135.7,286047001.9,N
1630444155.6,286047002.1,N
1630444175.4,286047002.3,N
1630444195.2,286047000.0,N
1630444215.1,286047000.6,N
1630444216.0,286047000.6,N
1630444235.8,286047002.1,N
1630444255.6,286047002.2,N
1630444275.5,286047001.9,N
1630444295.3,286047001.6,N
1630444315.2,286047002.5,N
1630444335.9,286047002.5,N
1630444355.7,286047002.1,N
1630444375.6,286047002.6,N
1630444395.4,286047002.6,N
1630444415.2,286047004.4,Y
1630444435.1,286047002.3,P
1630444436.0,286047002.3,P
1630444455.8,286047001.7,P
1630444475.7,286047003.6,Y
1630444495.5,286047002.0,P
1630444515.3,286046999.7,P
1630444535.2,286047000.6,N
1630444555.0,286046999.8,N
1630444555.9,286046999.8,N
1630444575.8,286046999.8,N
1630444595.6,286047000.0,N
1630444615.4,286047000.7,N
1630444635.3,286047000.2,N
1630444655.1,286047000.2,N
1630444675.9,286047000.2,N
1630444695.7,286047000.2,N
1630444715.5,286047000.2,N
1630444735.4,286047002.3,Y
1630444755.2,286047000.4,P
1630444775.0,286046998.5,P
1630444775.9,286046998.5,N
1630444795.8,286046998.3,N
1630444815.6,286046998.9,N
1630444835.5,286046998.2,N
1630444855.3,286046999.2,N
1630444875.1,286047002.7,Y
1630444895.9,286047002.4,P
1630444915.7,286046999.8,N
1630444935.5,286047002.4,N
1630444955.4,286047002.8,N
1630444975.2,286047002.0,N
1630444995.1,286047000.0,N
1630444996.0,286047000.0,N
1630445015.8,286047000.5,N
1630445035.6,286047001.2,N
1630445055.5,286046998.3,N
1630445075.3,286047001.2,N
1630445095.2,286046999.8,N
1630445115.9,286046999.7,N
1630445135.7,286046999.8,N
1630445155.6,286047002.1,N
1630445175.4,286047002.6,N
1630445195.2,286046999.9,N
1630445215.1,286047000.8,N
1630445216.0,286047000.8,N
1630445235.8,286046998.6,N
1630445255.7,286047000.6,N
1630445275.5,286047000.5,N
1630445295.3,286047000.4,N
1630445315.2,286047000.3,N
1630445335.9,286047000.3,N
1630445355.7,286047000.2,N
1630445375.6,286047000.5,N
1630445395.4,286047000.9,N
1630445415.2,286046999.8,N
1630445435.1,286047002.5,N
1630445436.0,286047002.5,N
1630445455.8,286047001.5,N
1630445475.7,286047003.0,N
1630445495.5,286047004.1,Y
1630445515.3,286047002.2,P
1630445535.2,286047002.3,P
1630445555.0,286046999.9,N
1630445555.9,286046999.9,N
1630445575.8,286047000.1,N
1630445595.6,286047002.4,N
1630445615.4,286047002.7,N
1630445635.3,286047001.0,N
1630445655.1,286047000.4,N
1630445675.8,286047000.6,N
1630445695.7,286047001.0,N
1630445715.5,286046998.5,N
1630445735.4,286046999.4,N
1630445755.2,286047003.6,N
1630445775.0,286047004.8,Y
1630445775.9,286047004.8,P
1630445795.8,286047004.6,N
1630445815.6,286047008.8,P
1630445835.4,286047007.8,N
1630445855.3,286047009.7,Y
1630445875.1,286047004.9,P
1630445895.9,286047003.9,P
1630445915.7,286046999.7,N
1630445935.5,286047002.3,N
1630445955.4,286047000.2,N
1630445975.2,286046996.5,N
1630445995.1,286046996.8,N
1630445996.0,286046996.8,N
1630446015.8,286046997.0,N
1630446035.6,286046996.5,N
1630446055.5,286046999.3,N
1630446075.3,286046996.6,N
1630446095.1,286046996.8,N
1630446115.9,286046999.6,N
1630446135.7,286046996.7,N
1630446155.6,286046997.8,N
1630446175.4,286046994.9,N
1630446195.2,286046998.0,N
1630446215.1,286046993.3,N
1630446216.0,286046993.3,N
1630446235.8,286046993.7,N
1630446255.6,286046996.4,N
1630446275.5,286046993.5,N
1630446295.3,286046991.8,N
1630446315.2,286046992.4,N
1630446335.9,286046992.8,N
1630446355.7,286046990.5,N
1630446375.6,286046992.4,N
1630446395.4,286046994.7,N
1630446415.2,286046993.1,N
1630446435.1,286046992.7,N
1630446436.0,286046992.7,N
1630446455.8,286046994.6,N
1630446475.7,286046991.8,N
1630446495.5,286046993.6,N
1630446515.3,286046992.1,Y
1630446535.2,286047001.1,P
1630446555.0,286047000.4,N
1630446555.9,286047000.4,N
1630446575.7,286046998.1,N
1630446595.6,286046999.9,N
1630446615.4,286047000.0,N
1630446635.3,286047000.7,N
1630446655.1,286047000.9,N
1630446656.0,286047000.9,N
1630446675.8,286046998.9,N
1630446695.7,286046998.1,N
1630446715.5,286046999.9,N
1630446735.3,286047000.6,N
1630446755.2,286047000.7,N
1630446775.0,286046998.3,N
1630446775.9,286046998.3,N
1630446795.8,286046999.3,N
1630446815.6,286046997.0,N
1630446835.4,286046998.4,N
1630446855.3,286046999.3,N
1630446875.1,286046999.2,N
1630446895.8,286046998.1,N
1630446915.7,286047000.4,N
1630446935.5,286047000.5,N
1630446955.4,286047000.4,N
1630446975.2,286047002.0,N
1630446995.0,286046999.8,N
1630446995.9,286046999.8,N
1630447015.8,286046998.8,N
1630447035.6,286046998.7,N
1630447055.4,286046999.3,N
1630447075.3,286047000.5,N
1630447095.1,286047000.5,N
1630447115.9,286047002.7,N
1630447135.7,286046999.9,N
1630447155.5,286047001.8,N
1630447175.4,286046999.7,N
1630447195.2,286047002.2,N
